Regional Weather Roundup
Issued by NWS State College, PA

Home | Current Version | Previous Version | Graphics & Text | Print | Product List | Glossary On
Versions: 1 2 3 4 5 6 7 8 9 10 11 12 13 14 15 16 17 18 19 20 21 22 23 24 25 26 27 28 29 30 31 32 33 34 35 36 37 38 39 40 41 42 43 44 45 46 47 48 49 50
000
ASUS41 KCTP 111310
RWRCTP

REGIONAL WEATHER ROUNDUP
NATIONAL WEATHER SERVICE STATE COLLEGE PA
800 AM EST THU FEB 11 2016

Note: "fair" indicates few or no clouds below 12,000 feet with no
significant weather and/or obstructions to visibility.

* = STATION THAT DOES NOT REPORT PRECIPITATION /E.G. RAIN...SNOW...ETC/
    THUNDER OR FOG.

PAZ002>004-007>009-013>016-020>023-029>032-111400-
WESTERN PENNSYLVANIA

CITY           SKY/WX    TMP DP  RH WIND       PRES   REMARKS
ERIE           LGT SNOW  15   7  70 NW12G21   30.02R WCI   2
MEADVILLE      LGT SNOW  11   4  73 W13       29.97R WCI  -4
FRANKLIN*      CLOUDY     9   0  66 W10G18    29.98R WCI  -6
NEW CASTLE     LGT SNOW  12   7  80 W9        30.06R WCI   0
BEAVER COUNTY  FLURRIES  10   5  79 W6        30.05R WCI   1
BUTLER*        MOCLDY    10   3  72 W8        30.07R WCI  -1
PITTSBURGH INT MOCLDY    11   4  73 W10       30.05R WCI  -3
PITTSBURGH     LGT SNOW  13   7  77 W13G18    30.05R WCI  -2
INDIANA*       MOCLDY    12   5  73 W10G17    30.02R WCI  -1
LATROBE        LGT SNOW  10   7  85 W12G21    30.05R WCI  -4
WASHINGTON CO* MOCLDY    10   3  72 SW8       30.07R WCI  -1
$$

PAZ004>006-010>012-017>019-024>028-033>037-041-042-045-046-049>053-111400-
CENTRAL PENNSYLVANIA

CITY           SKY/WX    TMP DP  RH WIND       PRES   REMARKS
BRADFORD       LGT SNOW   8   2  76 W14G22    29.82R VSB 3/4 WCI  -8
DUBOIS         CLOUDY     6  -1  73 W14       29.89R WCI -11
CLEARFIELD     CLEAR     10  -1  61 W10G21    29.92R WCI  -4
JOHNSTOWN      HVY SNOW   8   2  76 W13G24    29.88R VSB 1/4 WCI  -8
ALTOONA        LGT SNOW  12   3  67 NW14G21   29.95R WCI  -3
STATE COLLEGE  CLEAR     12   0  57 W17       29.94R WCI  -5
WILLIAMSPORT   CLEAR     17   0  47 W17       29.93R WCI   1
SELINSGROVE    PTCLDY    17   3  54 W9        29.97R WCI   6
FT INDIANTOWN  PTCLDY    17   3  54 SW14G25   29.95R WCI   3
CAPITAL CITY   MIX PCPN  19   4  51 NW22G30   29.99R WCI   2
HARRISBURG     MOCLDY    19   8  62 NW23G29   30.00R WCI   2
YORK           PTCLDY    16   4  59 W7        29.99R WCI   6
$$

PAZ038>040-043-044-047-048-054-055-060>062-067>071-111400-
EASTERN PENNSYLVANIA

CITY           SKY/WX    TMP DP  RH WIND       PRES   REMARKS
SCRANTON       CLEAR     14   1  56 W13       29.84R WCI   0
MOUNT POCONO   PTCLDY    10  -1  61 W18G26    29.74R WCI  -8
ALLENTOWN      PTCLDY    19   5  54 W9G18     29.92R WCI   8
QUAKERTOWN*    NOT AVBL
READING        LGT SNOW  19  12  74 W13       29.95R VSB 1   WCI   6
LANCASTER        N/A     17   7  64 W14       29.96R WCI   3
COATESVILLE    PTSUNNY   18   7  62 W14       29.96R WCI   4
POTTSTOWN      LGT SNOW  18  13  80 W6        29.96R WCI  10
BLUE BELL        N/A     19  16  86 W5        29.95R WCI  13
DOYLESTOWN     CLOUDY    18   6  59 W8        29.92R WCI   8
WILLOW GROVE   NOT AVBL
NORTH PHILA    LGT SNOW  22  13  68 W15       29.97R WCI   9
PHILADELPHIA   PTCLDY    22   5  48 W20G26    29.99R WCI   7
$$



USA.gov is the U.S. government's official web portal to all federal, state and local government web resources and services.